Year,Month,Day,Hour,Minute,Value (Times are PST for temperature in C)
2019,03,21,00,00,8.30
2019,03,21,00,01,8.20
2019,03,21,00,02,8.20
2019,03,21,00,03,8.20
2019,03,21,00,04,8.30
2019,03,21,00,05,8.30
2019,03,21,00,06,8.40
2019,03,21,00,07,8.40
2019,03,21,00,08,8.50
2019,03,21,00,09,8.50
2019,03,21,00,10,8.50
2019,03,21,00,11,8.60
2019,03,21,00,12,8.60
2019,03,21,00,13,8.60
2019,03,21,00,14,8.60
2019,03,21,00,15,8.60
2019,03,21,00,16,8.60
2019,03,21,00,17,8.60
2019,03,21,00,18,8.70
2019,03,21,00,19,8.70
2019,03,21,00,20,8.70
2019,03,21,00,21,8.80
2019,03,21,00,22,8.70
2019,03,21,00,23,8.70
2019,03,21,00,24,8.70
2019,03,21,00,25,8.70
2019,03,21,00,26,8.70
2019,03,21,00,27,8.70
2019,03,21,00,28,8.70
2019,03,21,00,29,8.70
2019,03,21,00,30,8.60
2019,03,21,00,31,8.50
2019,03,21,00,32,8.40
2019,03,21,00,33,8.30
2019,03,21,00,34,8.20
2019,03,21,00,35,8.00
2019,03,21,00,36,7.90
2019,03,21,00,37,7.80
2019,03,21,00,38,7.80
2019,03,21,00,39,7.80
2019,03,21,00,40,7.70
2019,03,21,00,41,7.80
2019,03,21,00,42,7.90
2019,03,21,00,43,7.90
2019,03,21,00,44,8.00
2019,03,21,00,45,7.90
2019,03,21,00,46,7.90
2019,03,21,00,47,7.90
2019,03,21,00,48,7.90
2019,03,21,00,49,7.80
2019,03,21,00,50,7.80
2019,03,21,00,51,7.80
2019,03,21,00,52,7.90
2019,03,21,00,53,7.90
2019,03,21,00,54,7.80
2019,03,21,00,55,7.80
2019,03,21,00,56,7.70
2019,03,21,00,57,7.50
2019,03,21,00,58,7.50
2019,03,21,00,59,7.40
2019,03,21,01,00,7.50
2019,03,21,01,01,7.60
2019,03,21,01,02,7.70
2019,03,21,01,03,7.70
2019,03,21,01,04,7.70
2019,03,21,01,05,7.70
2019,03,21,01,06,7.60
2019,03,21,01,07,7.50
2019,03,21,01,08,7.40
2019,03,21,01,09,7.30
2019,03,21,01,10,7.30
2019,03,21,01,11,7.30
2019,03,21,01,12,7.30
2019,03,21,01,13,7.30
2019,03,21,01,14,7.40
2019,03,21,01,15,7.40
2019,03,21,01,16,7.30
2019,03,21,01,17,7.30
2019,03,21,01,18,7.30
2019,03,21,01,19,7.40
2019,03,21,01,20,7.40
2019,03,21,01,21,7.40
2019,03,21,01,22,7.40
2019,03,21,01,23,7.40
2019,03,21,01,24,7.40
2019,03,21,01,25,7.40
2019,03,21,01,26,7.40
2019,03,21,01,27,7.30
2019,03,21,01,28,7.30
2019,03,21,01,29,7.30
2019,03,21,01,30,7.30
2019,03,21,01,31,7.30
2019,03,21,01,32,7.30
2019,03,21,01,33,7.30
2019,03,21,01,34,7.40
2019,03,21,01,35,7.40
2019,03,21,01,36,7.40
2019,03,21,01,37,7.40
2019,03,21,01,38,7.40
2019,03,21,01,39,7.30
2019,03,21,01,40,7.20
2019,03,21,01,41,7.20
2019,03,21,01,42,7.30
2019,03,21,01,43,7.50
2019,03,21,01,44,7.80
2019,03,21,01,45,8.00
2019,03,21,01,46,8.10
2019,03,21,01,47,8.10
2019,03,21,01,48,8.00
2019,03,21,01,49,7.90
2019,03,21,01,50,7.80
2019,03,21,01,51,7.70
2019,03,21,01,52,7.70
2019,03,21,01,53,7.70
2019,03,21,01,54,7.70
2019,03,21,01,55,7.70
2019,03,21,01,56,7.70
2019,03,21,01,57,7.70
2019,03,21,01,58,7.80
2019,03,21,01,59,7.80
2019,03,21,02,00,7.90
2019,03,21,02,01,7.90
2019,03,21,02,02,7.90
2019,03,21,02,03,7.90
2019,03,21,02,04,7.90
2019,03,21,02,05,7.90
2019,03,21,02,06,7.90
2019,03,21,02,07,7.80
2019,03,21,02,08,7.80
2019,03,21,02,09,7.70
2019,03,21,02,10,7.70
2019,03,21,02,11,7.70
2019,03,21,02,12,7.60
2019,03,21,02,13,7.60
2019,03,21,02,14,7.70
2019,03,21,02,15,7.70
2019,03,21,02,16,7.80
2019,03,21,02,17,7.90
2019,03,21,02,18,7.90
2019,03,21,02,19,7.90
2019,03,21,02,20,8.00
2019,03,21,02,21,8.00
2019,03,21,02,22,8.10
2019,03,21,02,23,8.10
2019,03,21,02,24,8.10
2019,03,21,02,25,8.00
2019,03,21,02,26,8.00
2019,03,21,02,27,7.90
2019,03,21,02,28,7.80
2019,03,21,02,29,7.80
2019,03,21,02,30,7.80
2019,03,21,02,31,7.80
2019,03,21,02,32,7.80
2019,03,21,02,33,7.80
2019,03,21,02,34,7.80
2019,03,21,02,35,7.70
2019,03,21,02,36,7.60
2019,03,21,02,37,7.50
2019,03,21,02,38,7.40
2019,03,21,02,39,7.20
2019,03,21,02,40,7.10
2019,03,21,02,41,7.00
2019,03,21,02,42,6.90
2019,03,21,02,43,6.80
2019,03,21,02,44,6.70
2019,03,21,02,45,6.70
2019,03,21,02,46,6.70
2019,03,21,02,47,6.70
2019,03,21,02,48,6.80
2019,03,21,02,49,6.90
2019,03,21,02,50,6.80
2019,03,21,02,51,6.80
2019,03,21,02,52,6.70
2019,03,21,02,53,6.80
2019,03,21,02,54,6.90
2019,03,21,02,55,7.00
2019,03,21,02,56,7.10
2019,03,21,02,57,7.20
2019,03,21,02,58,7.30
2019,03,21,02,59,7.30
2019,03,21,03,00,7.30
2019,03,21,03,01,7.30
2019,03,21,03,02,7.40
2019,03,21,03,03,7.50
2019,03,21,03,04,7.60
2019,03,21,03,05,7.60
2019,03,21,03,06,7.60
2019,03,21,03,07,7.70
2019,03,21,03,08,7.70
2019,03,21,03,09,7.60
2019,03,21,03,10,7.60
2019,03,21,03,11,7.60
2019,03,21,03,12,7.60
2019,03,21,03,13,7.60
2019,03,21,03,14,7.60
2019,03,21,03,15,7.60
2019,03,21,03,16,7.60
2019,03,21,03,17,7.60
2019,03,21,03,18,7.60
2019,03,21,03,19,7.60
2019,03,21,03,20,7.50
2019,03,21,03,21,7.30
2019,03,21,03,22,7.30
2019,03,21,03,23,7.30
2019,03,21,03,24,7.40
2019,03,21,03,25,7.50
2019,03,21,03,26,7.60
2019,03,21,03,27,7.70
2019,03,21,03,28,7.60
2019,03,21,03,29,7.50
2019,03,21,03,30,7.30
2019,03,21,03,31,7.30
2019,03,21,03,32,7.30
2019,03,21,03,33,7.40
2019,03,21,03,34,7.50
2019,03,21,03,35,7.50
2019,03,21,03,36,7.40
2019,03,21,03,37,7.30
2019,03,21,03,38,7.10
2019,03,21,03,39,6.90
2019,03,21,03,40,6.90
2019,03,21,03,41,6.80
2019,03,21,03,42,6.80
2019,03,21,03,43,6.80
2019,03,21,03,44,6.80
2019,03,21,03,45,6.90
2019,03,21,03,46,6.90
2019,03,21,03,47,6.90
2019,03,21,03,48,6.80
2019,03,21,03,49,6.80
2019,03,21,03,50,6.80
2019,03,21,03,51,6.70
2019,03,21,03,52,6.70
2019,03,21,03,53,6.70
2019,03,21,03,54,6.70
2019,03,21,03,55,6.70
2019,03,21,03,56,6.80
2019,03,21,03,57,6.80
2019,03,21,03,58,6.80
2019,03,21,03,59,6.70
2019,03,21,04,00,6.60
2019,03,21,04,01,6.60
2019,03,21,04,02,6.60
2019,03,21,04,03,6.60
2019,03,21,04,04,6.60
2019,03,21,04,05,6.70
2019,03,21,04,06,6.80
2019,03,21,04,07,6.80
2019,03,21,04,08,6.60
2019,03,21,04,09,6.60
2019,03,21,04,10,6.50
2019,03,21,04,11,6.60
2019,03,21,04,12,6.60
2019,03,21,04,13,6.60
2019,03,21,04,14,6.70
2019,03,21,04,15,6.70
2019,03,21,04,16,6.60
2019,03,21,04,17,6.50
2019,03,21,04,18,6.50
2019,03,21,04,19,6.60
2019,03,21,04,20,6.70
2019,03,21,04,21,6.70
2019,03,21,04,22,6.70
2019,03,21,04,23,6.70
2019,03,21,04,24,6.70
2019,03,21,04,25,6.80
2019,03,21,04,26,6.80
2019,03,21,04,27,6.80
2019,03,21,04,28,6.80
2019,03,21,04,29,6.70
2019,03,21,04,30,6.60
2019,03,21,04,31,6.50
2019,03,21,04,32,6.50
2019,03,21,04,33,6.60
2019,03,21,04,34,6.70
2019,03,21,04,35,6.80
2019,03,21,04,36,7.00
2019,03,21,04,37,7.10
2019,03,21,04,38,7.10
2019,03,21,04,39,7.10
2019,03,21,04,40,7.10
2019,03,21,04,41,7.10
2019,03,21,04,42,7.00
2019,03,21,04,43,6.90
2019,03,21,04,44,6.80
2019,03,21,04,45,6.70
2019,03,21,04,46,6.60
2019,03,21,04,47,6.60
2019,03,21,04,48,6.50
2019,03,21,04,49,6.50
2019,03,21,04,50,6.50
2019,03,21,04,51,6.50
2019,03,21,04,52,6.50
2019,03,21,04,53,6.50
2019,03,21,04,54,6.40
2019,03,21,04,55,6.40
2019,03,21,04,56,6.50
2019,03,21,04,57,6.50
2019,03,21,04,58,6.40
2019,03,21,04,59,6.40
2019,03,21,05,00,6.40
2019,03,21,05,01,6.50
2019,03,21,05,02,6.50
2019,03,21,05,03,6.50
2019,03,21,05,04,6.50
2019,03,21,05,05,6.60
2019,03,21,05,06,6.60
2019,03,21,05,07,6.60
2019,03,21,05,08,6.60
2019,03,21,05,09,6.60
2019,03,21,05,10,6.60
2019,03,21,05,11,6.60
2019,03,21,05,12,6.50
2019,03,21,05,13,6.50
2019,03,21,05,14,6.40
2019,03,21,05,15,6.40
2019,03,21,05,16,6.40
2019,03,21,05,17,6.30
2019,03,21,05,18,6.30
2019,03,21,05,19,6.30
2019,03,21,05,20,6.30
2019,03,21,05,21,6.30
2019,03,21,05,22,6.30
2019,03,21,05,23,6.30
2019,03,21,05,24,6.30
2019,03,21,05,25,6.30
2019,03,21,05,26,6.30
2019,03,21,05,27,6.30
2019,03,21,05,28,6.30
2019,03,21,05,29,6.30
2019,03,21,05,30,6.30
2019,03,21,05,31,6.30
2019,03,21,05,32,6.30
2019,03,21,05,33,6.30
2019,03,21,05,34,6.30
2019,03,21,05,35,6.10
2019,03,21,05,36,6.10
2019,03,21,05,37,6.10
2019,03,21,05,38,6.00
2019,03,21,05,39,6.00
2019,03,21,05,40,5.90
2019,03,21,05,41,5.80
2019,03,21,05,42,5.70
2019,03,21,05,43,5.70
2019,03,21,05,44,5.70
2019,03,21,05,45,5.80
2019,03,21,05,46,5.90
2019,03,21,05,47,6.00
2019,03,21,05,48,6.00
2019,03,21,05,49,6.10
2019,03,21,05,50,6.20
2019,03,21,05,51,6.20
2019,03,21,05,52,6.30
2019,03,21,05,53,6.30
2019,03,21,05,54,6.20
2019,03,21,05,55,6.20
2019,03,21,05,56,6.20
2019,03,21,05,57,6.30
2019,03,21,05,58,6.30
2019,03,21,05,59,6.30
2019,03,21,06,00,6.30
2019,03,21,06,01,6.30
2019,03,21,06,02,6.30
2019,03,21,06,03,6.20
2019,03,21,06,04,6.20
2019,03,21,06,05,6.20
2019,03,21,06,06,6.20
2019,03,21,06,07,6.20
2019,03,21,06,08,6.10
2019,03,21,06,09,6.10
2019,03,21,06,10,6.00
2019,03,21,06,11,5.90
2019,03,21,06,12,5.80
2019,03,21,06,13,5.70
2019,03,21,06,14,5.60
2019,03,21,06,15,5.60
2019,03,21,06,16,5.50
2019,03,21,06,17,5.50
2019,03,21,06,18,5.60
2019,03,21,06,19,5.60
2019,03,21,06,20,5.70
2019,03,21,06,21,5.70
2019,03,21,06,22,5.70
2019,03,21,06,23,5.70
2019,03,21,06,24,5.70
2019,03,21,06,25,5.70
2019,03,21,06,26,5.70
2019,03,21,06,27,5.70
2019,03,21,06,28,5.80
2019,03,21,06,29,5.90
2019,03,21,06,30,6.00
2019,03,21,06,31,6.00
2019,03,21,06,32,5.90
2019,03,21,06,33,5.80
2019,03,21,06,34,5.80
2019,03,21,06,35,5.70
2019,03,21,06,36,5.80
2019,03,21,06,37,5.90
2019,03,21,06,38,5.90
2019,03,21,06,39,6.10
2019,03,21,06,40,6.10
2019,03,21,06,41,6.20
2019,03,21,06,42,6.20
2019,03,21,06,43,6.10
2019,03,21,06,44,6.00
2019,03,21,06,45,5.90
2019,03,21,06,46,5.90
2019,03,21,06,47,5.80
2019,03,21,06,48,5.80
2019,03,21,06,49,5.80
2019,03,21,06,50,5.80
2019,03,21,06,51,5.80
2019,03,21,06,52,5.80
2019,03,21,06,53,5.80
2019,03,21,06,54,5.80
2019,03,21,06,55,5.80
2019,03,21,06,56,5.80
2019,03,21,06,57,5.80
2019,03,21,06,58,5.70
2019,03,21,06,59,5.70
2019,03,21,07,00,5.60
2019,03,21,07,01,5.50
2019,03,21,07,02,5.40
2019,03,21,07,03,5.30
2019,03,21,07,04,5.20
2019,03,21,07,05,5.10
2019,03,21,07,06,5.10
2019,03,21,07,07,5.00
2019,03,21,07,08,5.00
2019,03,21,07,09,5.00
2019,03,21,07,10,5.10
2019,03,21,07,11,5.10
2019,03,21,07,12,5.10
2019,03,21,07,13,5.10
2019,03,21,07,14,5.20
2019,03,21,07,15,5.20
2019,03,21,07,16,5.20
2019,03,21,07,17,5.10
2019,03,21,07,18,5.00
2019,03,21,07,19,5.00
2019,03,21,07,20,5.00
2019,03,21,07,21,5.00
2019,03,21,07,22,5.10
2019,03,21,07,23,5.30
2019,03,21,07,24,5.40
2019,03,21,07,25,5.40
2019,03,21,07,26,5.50
2019,03,21,07,27,5.50
2019,03,21,07,28,5.70
2019,03,21,07,29,5.80
2019,03,21,07,30,6.00
2019,03,21,07,31,6.10
2019,03,21,07,32,6.10
2019,03,21,07,33,6.10
2019,03,21,07,34,6.00
2019,03,21,07,35,6.00
2019,03,21,07,36,5.90
2019,03,21,07,37,5.80
2019,03,21,07,38,5.80
2019,03,21,07,39,5.70
2019,03,21,07,40,5.70
2019,03,21,07,41,5.80
2019,03,21,07,42,5.90
2019,03,21,07,43,5.90
2019,03,21,07,44,5.90
2019,03,21,07,45,5.90
2019,03,21,07,46,5.90
2019,03,21,07,47,5.90
2019,03,21,07,48,5.80
2019,03,21,07,49,5.70
2019,03,21,07,50,5.60
2019,03,21,07,51,5.60
2019,03,21,07,52,5.50
2019,03,21,07,53,5.50
2019,03,21,07,54,5.50
2019,03,21,07,55,5.50
2019,03,21,07,56,5.50
2019,03,21,07,57,5.50
2019,03,21,07,58,5.50
2019,03,21,07,59,5.40
2019,03,21,08,00,5.30
2019,03,21,08,01,5.30
2019,03,21,08,02,5.20
2019,03,21,08,03,5.30
2019,03,21,08,04,5.30
2019,03,21,08,05,5.40
2019,03,21,08,06,5.50
2019,03,21,08,07,5.60
2019,03,21,08,08,5.70
2019,03,21,08,09,5.80
2019,03,21,08,10,5.90
2019,03,21,08,11,6.00
2019,03,21,08,12,6.10
2019,03,21,08,13,6.30
2019,03,21,08,14,6.40
2019,03,21,08,15,6.50
2019,03,21,08,16,6.50
2019,03,21,08,17,6.60
2019,03,21,08,18,6.60
2019,03,21,08,19,6.50
2019,03,21,08,20,6.40
2019,03,21,08,21,6.40
2019,03,21,08,22,6.50
2019,03,21,08,23,6.60
2019,03,21,08,24,6.60
2019,03,21,08,25,6.70
2019,03,21,08,26,6.70
2019,03,21,08,27,6.70
2019,03,21,08,28,6.70
2019,03,21,08,29,6.70
2019,03,21,08,30,6.70
2019,03,21,08,31,6.80
2019,03,21,08,32,6.90
2019,03,21,08,33,7.00
2019,03,21,08,34,7.10
2019,03,21,08,35,7.20
2019,03,21,08,36,7.20
2019,03,21,08,37,7.30
2019,03,21,08,38,7.30
2019,03,21,08,39,7.30
2019,03,21,08,40,7.40
2019,03,21,08,41,7.50
2019,03,21,08,42,7.60
2019,03,21,08,43,7.60
2019,03,21,08,44,7.70
2019,03,21,08,45,7.70
2019,03,21,08,46,7.70
2019,03,21,08,47,7.80
2019,03,21,08,48,7.80
2019,03,21,08,49,7.90
2019,03,21,08,50,8.00
2019,03,21,08,51,8.10
2019,03,21,08,52,8.20
2019,03,21,08,53,8.30
2019,03,21,08,54,8.40
2019,03,21,08,55,8.50
2019,03,21,08,56,8.60
2019,03,21,08,57,8.70
2019,03,21,08,58,8.80
2019,03,21,08,59,8.90
2019,03,21,09,00,9.10
2019,03,21,09,01,9.20
2019,03,21,09,02,9.30
2019,03,21,09,03,9.40
2019,03,21,09,04,9.40
2019,03,21,09,05,9.50
2019,03,21,09,06,9.50
2019,03,21,09,07,9.50
2019,03,21,09,08,9.50
2019,03,21,09,09,9.50
2019,03,21,09,10,9.60
2019,03,21,09,11,9.70
2019,03,21,09,12,9.70
2019,03,21,09,13,9.70
2019,03,21,09,14,9.80
2019,03,21,09,15,9.80
2019,03,21,09,16,9.90
2019,03,21,09,17,9.90
2019,03,21,09,18,10.00
2019,03,21,09,19,10.10
2019,03,21,09,20,10.10
2019,03,21,09,21,10.30
2019,03,21,09,22,10.40
2019,03,21,09,23,10.50
2019,03,21,09,24,10.60
2019,03,21,09,25,10.70
2019,03,21,09,26,10.80
2019,03,21,09,27,10.90
2019,03,21,09,28,10.90
2019,03,21,09,29,10.90
2019,03,21,09,30,11.00
2019,03,21,09,31,11.10
2019,03,21,09,32,11.10
2019,03,21,09,33,11.10
2019,03,21,09,34,11.10
2019,03,21,09,35,11.10
2019,03,21,09,36,11.20
2019,03,21,09,37,11.20
2019,03,21,09,38,11.20
2019,03,21,09,39,11.30
2019,03,21,09,40,11.30
2019,03,21,09,41,11.40
2019,03,21,09,42,11.50
2019,03,21,09,43,11.50
2019,03,21,09,44,11.60
2019,03,21,09,45,11.60
2019,03,21,09,46,11.70
2019,03,21,09,47,11.70
2019,03,21,09,48,11.80
2019,03,21,09,49,11.80
2019,03,21,09,50,11.80
2019,03,21,09,51,11.90
2019,03,21,09,52,11.90
2019,03,21,09,53,11.90
2019,03,21,09,54,11.90
2019,03,21,09,55,11.90
2019,03,21,09,56,11.90
2019,03,21,09,57,12.00
2019,03,21,09,58,12.10
2019,03,21,09,59,12.10
2019,03,21,10,00,12.20
2019,03,21,10,01,12.30
2019,03,21,10,02,12.30
2019,03,21,10,03,12.40
2019,03,21,10,04,12.40
2019,03,21,10,05,12.40
2019,03,21,10,06,12.40
2019,03,21,10,07,12.40
2019,03,21,10,08,12.40
2019,03,21,10,09,12.50
2019,03,21,10,10,12.50
2019,03,21,10,11,12.60
2019,03,21,10,12,12.70
2019,03,21,10,13,12.70
2019,03,21,10,14,12.80
2019,03,21,10,15,12.80
2019,03,21,10,16,12.90
2019,03,21,10,17,12.90
2019,03,21,10,18,13.00
2019,03,21,10,19,13.00
2019,03,21,10,20,13.10
2019,03,21,10,21,13.10
2019,03,21,10,22,13.20
2019,03,21,10,23,13.30
2019,03,21,10,24,13.40
2019,03,21,10,25,13.50
2019,03,21,10,26,13.50
2019,03,21,10,27,13.60
2019,03,21,10,28,13.60
2019,03,21,10,29,13.60
2019,03,21,10,30,13.60
2019,03,21,10,31,13.60
2019,03,21,10,32,13.60
2019,03,21,10,33,13.60
2019,03,21,10,34,13.60
2019,03,21,10,35,13.60
2019,03,21,10,36,13.70
2019,03,21,10,37,13.70
2019,03,21,10,38,13.70
2019,03,21,10,39,13.70
2019,03,21,10,40,13.70
2019,03,21,10,41,13.70
2019,03,21,10,42,13.70
2019,03,21,10,43,13.70
2019,03,21,10,44,13.70
2019,03,21,10,45,13.70
2019,03,21,10,46,13.80
2019,03,21,10,47,13.80
2019,03,21,10,48,13.80
2019,03,21,10,49,13.80
2019,03,21,10,50,13.80
2019,03,21,10,51,13.70
2019,03,21,10,52,13.70
2019,03,21,10,53,13.80
2019,03,21,10,54,13.80
2019,03,21,10,55,13.80
2019,03,21,10,56,13.90
2019,03,21,10,57,13.90
2019,03,21,10,58,13.90
2019,03,21,10,59,13.90
2019,03,21,11,00,13.90
2019,03,21,11,01,13.80
2019,03,21,11,02,13.80
2019,03,21,11,03,13.70
2019,03,21,11,04,13.80
2019,03,21,11,05,13.80
2019,03,21,11,06,13.80
2019,03,21,11,07,13.80
2019,03,21,11,08,13.80
2019,03,21,11,09,13.80
2019,03,21,11,10,13.90
2019,03,21,11,11,13.90
2019,03,21,11,12,14.00
2019,03,21,11,13,14.00
2019,03,21,11,14,14.10
2019,03,21,11,15,14.10
2019,03,21,11,16,14.10
2019,03,21,11,17,14.00
2019,03,21,11,18,14.00
2019,03,21,11,19,13.90
2019,03,21,11,20,13.80
2019,03,21,11,21,13.90
2019,03,21,11,22,13.90
2019,03,21,11,23,13.90
2019,03,21,11,24,13.90
2019,03,21,11,25,14.00
2019,03,21,11,26,14.00
2019,03,21,11,27,14.00
2019,03,21,11,28,14.10
2019,03,21,11,29,14.10
2019,03,21,11,30,14.20
2019,03,21,11,31,14.20
2019,03,21,11,32,14.10
2019,03,21,11,33,14.10
2019,03,21,11,34,14.10
2019,03,21,11,35,14.10
2019,03,21,11,36,14.10
2019,03,21,11,37,14.10
2019,03,21,11,38,14.20
2019,03,21,11,39,14.20
2019,03,21,11,40,14.20
2019,03,21,11,41,14.30
2019,03,21,11,42,14.30
2019,03,21,11,43,14.40
2019,03,21,11,44,14.40
2019,03,21,11,45,14.40
2019,03,21,11,46,14.40
2019,03,21,11,47,14.40
2019,03,21,11,48,14.40
2019,03,21,11,49,14.40
2019,03,21,11,50,14.30
2019,03,21,11,51,14.30
2019,03,21,11,52,14.30
2019,03,21,11,53,14.40
2019,03,21,11,54,14.40
2019,03,21,11,55,14.50
2019,03,21,11,56,14.50
2019,03,21,11,57,14.60
2019,03,21,11,58,14.70
2019,03,21,11,59,14.80
2019,03,21,12,00,14.90
2019,03,21,12,01,14.90
2019,03,21,12,02,14.90
2019,03,21,12,03,14.90
2019,03,21,12,04,15.00
2019,03,21,12,05,15.10
2019,03,21,12,06,15.10
2019,03,21,12,07,15.20
2019,03,21,12,08,15.30
2019,03,21,12,09,15.30
2019,03,21,12,10,15.40
2019,03,21,12,11,15.30
2019,03,21,12,12,15.30
2019,03,21,12,13,15.40
2019,03,21,12,14,15.40
2019,03,21,12,15,15.50
2019,03,21,12,16,15.50
2019,03,21,12,17,15.60
2019,03,21,12,18,15.60
2019,03,21,12,19,15.60
2019,03,21,12,20,15.60
2019,03,21,12,21,15.60
2019,03,21,12,22,15.60
2019,03,21,12,23,15.60
2019,03,21,12,24,15.60
2019,03,21,12,25,15.70
2019,03,21,12,26,15.70
2019,03,21,12,27,15.80
2019,03,21,12,28,15.90
2019,03,21,12,29,15.90
2019,03,21,12,30,15.90
2019,03,21,12,31,15.90
2019,03,21,12,32,15.90
2019,03,21,12,33,15.90
2019,03,21,12,34,15.90
2019,03,21,12,35,15.90
2019,03,21,12,36,16.00
2019,03,21,12,37,15.90
2019,03,21,12,38,15.90
2019,03,21,12,39,15.80
2019,03,21,12,40,15.80
2019,03,21,12,41,15.80
2019,03,21,12,42,15.80
2019,03,21,12,43,15.80
2019,03,21,12,44,15.90
2019,03,21,12,45,16.00
2019,03,21,12,46,16.10
2019,03,21,12,47,16.20
2019,03,21,12,48,16.20
2019,03,21,12,49,16.20
2019,03,21,12,50,16.20
2019,03,21,12,51,16.30
2019,03,21,12,52,16.30
2019,03,21,12,53,16.30
2019,03,21,12,54,16.40
2019,03,21,12,55,16.40
2019,03,21,12,56,16.40
2019,03,21,12,57,16.30
2019,03,21,12,58,16.30
2019,03,21,12,59,16.30
2019,03,21,13,00,16.40
2019,03,21,13,01,16.40
2019,03,21,13,02,16.40
2019,03,21,13,03,16.40
2019,03,21,13,04,16.40
2019,03,21,13,05,16.40
2019,03,21,13,06,16.40
2019,03,21,13,07,16.40
2019,03,21,13,08,16.40
2019,03,21,13,09,16.30
2019,03,21,13,10,16.30
2019,03,21,13,11,16.30
2019,03,21,13,12,16.30
2019,03,21,13,13,16.30
2019,03,21,13,14,16.30
2019,03,21,13,15,16.40
2019,03,21,13,16,16.50
2019,03,21,13,17,16.50
2019,03,21,13,18,16.50
2019,03,21,13,19,16.60
2019,03,21,13,20,16.60
2019,03,21,13,21,16.60
2019,03,21,13,22,16.70
2019,03,21,13,23,16.70
2019,03,21,13,24,16.70
2019,03,21,13,25,16.70
2019,03,21,13,26,16.70
2019,03,21,13,27,16.70
2019,03,21,13,28,16.70
2019,03,21,13,29,16.70
2019,03,21,13,30,16.70
2019,03,21,13,31,16.80
2019,03,21,13,32,16.80
2019,03,21,13,33,16.80
2019,03,21,13,34,16.70
2019,03,21,13,35,16.60
2019,03,21,13,36,16.60
2019,03,21,13,37,16.60
2019,03,21,13,38,16.50
2019,03,21,13,39,16.50
2019,03,21,13,40,16.50
2019,03,21,13,41,16.50
2019,03,21,13,42,16.50
2019,03,21,13,43,16.50
2019,03,21,13,44,16.50
2019,03,21,13,45,16.50
2019,03,21,13,46,16.60
2019,03,21,13,47,16.70
2019,03,21,13,48,16.70
2019,03,21,13,49,16.80
2019,03,21,13,50,16.80
2019,03,21,13,51,16.80
2019,03,21,13,52,16.80
2019,03,21,13,53,16.80
2019,03,21,13,54,16.80
2019,03,21,13,55,16.90
2019,03,21,13,56,16.90
2019,03,21,13,57,16.90
2019,03,21,13,58,16.90
2019,03,21,13,59,17.00
2019,03,21,14,00,17.00
2019,03,21,14,01,17.00
2019,03,21,14,02,17.00
2019,03,21,14,03,17.00
2019,03,21,14,04,17.00
2019,03,21,14,05,17.00
2019,03,21,14,06,17.00
2019,03,21,14,07,16.90
2019,03,21,14,08,16.90
2019,03,21,14,09,16.90
2019,03,21,14,10,16.90
2019,03,21,14,11,17.00
2019,03,21,14,12,17.00
2019,03,21,14,13,17.10
2019,03,21,14,14,17.10
2019,03,21,14,15,17.10
2019,03,21,14,16,17.20
2019,03,21,14,17,17.20
2019,03,21,14,18,17.20
2019,03,21,14,19,17.20
2019,03,21,14,20,17.30
2019,03,21,14,21,17.30
2019,03,21,14,22,17.30
2019,03,21,14,23,17.30
2019,03,21,14,24,17.30
2019,03,21,14,25,17.30
2019,03,21,14,26,17.30
2019,03,21,14,27,17.20
2019,03,21,14,28,17.20
2019,03,21,14,29,17.20
2019,03,21,14,30,17.30
2019,03,21,14,31,17.30
2019,03,21,14,32,17.30
2019,03,21,14,33,17.30
2019,03,21,14,34,17.30
2019,03,21,14,35,17.30
2019,03,21,14,36,17.30
2019,03,21,14,37,17.30
2019,03,21,14,38,17.40
2019,03,21,14,39,17.40
2019,03,21,14,40,17.40
2019,03,21,14,41,17.40
2019,03,21,14,42,17.40
2019,03,21,14,43,17.30
2019,03,21,14,44,17.40
2019,03,21,14,45,17.40
2019,03,21,14,46,17.40
2019,03,21,14,47,17.40
2019,03,21,14,48,17.30
2019,03,21,14,49,17.30
2019,03,21,14,50,17.30
2019,03,21,14,51,17.40
2019,03,21,14,52,17.50
2019,03,21,14,53,17.50
2019,03,21,14,54,17.40
2019,03,21,14,55,17.40
2019,03,21,14,56,17.40
2019,03,21,14,57,17.40
2019,03,21,14,58,17.40
2019,03,21,14,59,17.30
2019,03,21,15,00,17.30
2019,03,21,15,01,17.30
2019,03,21,15,02,17.30
2019,03,21,15,03,17.30
2019,03,21,15,04,17.30
2019,03,21,15,05,17.30
2019,03,21,15,06,17.40
2019,03,21,15,07,17.40
2019,03,21,15,08,17.50
2019,03,21,15,09,17.50
2019,03,21,15,10,17.60
2019,03,21,15,11,17.60
2019,03,21,15,12,17.60
2019,03,21,15,13,17.50
2019,03,21,15,14,17.50
2019,03,21,15,15,17.50
2019,03,21,15,16,17.60
2019,03,21,15,17,17.60
2019,03,21,15,18,17.70
2019,03,21,15,19,17.70
2019,03,21,15,20,17.70
2019,03,21,15,21,17.70
2019,03,21,15,22,17.80
2019,03,21,15,23,17.80
2019,03,21,15,24,17.80
2019,03,21,15,25,17.90
2019,03,21,15,26,17.90
2019,03,21,15,27,17.90
2019,03,21,15,28,17.90
2019,03,21,15,29,17.80
2019,03,21,15,30,17.80
2019,03,21,15,31,17.80
2019,03,21,15,32,17.80
2019,03,21,15,33,17.80
2019,03,21,15,34,17.90
2019,03,21,15,35,18.00
2019,03,21,15,36,18.10
2019,03,21,15,37,18.10
2019,03,21,15,38,18.20
2019,03,21,15,39,18.20
2019,03,21,15,40,18.20
2019,03,21,15,41,18.20
2019,03,21,15,42,18.30
2019,03,21,15,43,18.30
2019,03,21,15,44,18.30
2019,03,21,15,45,18.40
2019,03,21,15,46,18.40
2019,03,21,15,47,18.40
2019,03,21,15,48,18.40
2019,03,21,15,49,18.40
2019,03,21,15,50,18.40
2019,03,21,15,51,18.30
2019,03,21,15,52,18.20
2019,03,21,15,53,18.10
2019,03,21,15,54,18.00
2019,03,21,15,55,17.90
2019,03,21,15,56,17.90
2019,03,21,15,57,17.80
2019,03,21,15,58,17.80
2019,03,21,15,59,17.80
2019,03,21,16,00,17.80
2019,03,21,16,01,17.80
2019,03,21,16,02,17.80
2019,03,21,16,03,17.80
2019,03,21,16,04,17.80
2019,03,21,16,05,17.80
2019,03,21,16,06,17.90
2019,03,21,16,07,17.80
2019,03,21,16,08,17.80
2019,03,21,16,09,17.80
2019,03,21,16,10,17.80
2019,03,21,16,11,17.80
2019,03,21,16,12,17.80
2019,03,21,16,13,17.80
2019,03,21,16,14,17.90
2019,03,21,16,15,17.90
2019,03,21,16,16,17.90
2019,03,21,16,17,17.80
2019,03,21,16,18,17.80
2019,03,21,16,19,17.80
2019,03,21,16,20,17.70
2019,03,21,16,21,17.70
2019,03,21,16,22,17.70
2019,03,21,16,23,17.70
2019,03,21,16,24,17.70
2019,03,21,16,25,17.70
2019,03,21,16,26,17.60
2019,03,21,16,27,17.60
2019,03,21,16,28,17.60
2019,03,21,16,29,17.60
2019,03,21,16,30,17.50
2019,03,21,16,31,17.50
2019,03,21,16,32,17.40
2019,03,21,16,33,17.30
2019,03,21,16,34,17.30
2019,03,21,16,35,17.30
2019,03,21,16,36,17.30
2019,03,21,16,37,17.40
2019,03,21,16,38,17.40
2019,03,21,16,39,17.40
2019,03,21,16,40,17.40
2019,03,21,16,41,17.40
2019,03,21,16,42,17.40
2019,03,21,16,43,17.30
2019,03,21,16,44,17.30
2019,03,21,16,45,17.40
2019,03,21,16,46,17.40
2019,03,21,16,47,17.40
2019,03,21,16,48,17.40
2019,03,21,16,49,17.40
2019,03,21,16,50,17.40
2019,03,21,16,51,17.40
2019,03,21,16,52,17.30
2019,03,21,16,53,17.30
2019,03,21,16,54,17.30
2019,03,21,16,55,17.30
2019,03,21,16,56,17.30
2019,03,21,16,57,17.30
2019,03,21,16,58,17.20
2019,03,21,16,59,17.20
2019,03,21,17,00,17.20
2019,03,21,17,01,17.20
2019,03,21,17,02,17.30
2019,03,21,17,03,17.30
2019,03,21,17,04,17.30
2019,03,21,17,05,17.30
2019,03,21,17,06,17.30
2019,03,21,17,07,17.30
2019,03,21,17,08,17.30
2019,03,21,17,09,17.30
2019,03,21,17,10,17.30
2019,03,21,17,11,17.30
2019,03,21,17,12,17.30
2019,03,21,17,13,17.30
2019,03,21,17,14,17.40
2019,03,21,17,15,17.40
2019,03,21,17,16,17.50
2019,03,21,17,17,17.50
2019,03,21,17,18,17.50
2019,03,21,17,19,17.50
2019,03,21,17,20,17.50
2019,03,21,17,21,17.50
2019,03,21,17,22,17.50
2019,03,21,17,23,17.50
2019,03,21,17,24,17.40
2019,03,21,17,25,17.40
2019,03,21,17,26,17.30
2019,03,21,17,27,17.30
2019,03,21,17,28,17.30
2019,03,21,17,29,17.30
2019,03,21,17,30,17.30
2019,03,21,17,31,17.30
2019,03,21,17,32,17.30
2019,03,21,17,33,17.30
2019,03,21,17,34,17.20
2019,03,21,17,35,17.20
2019,03,21,17,36,17.20
2019,03,21,17,37,17.20
2019,03,21,17,38,17.20
2019,03,21,17,39,17.10
2019,03,21,17,40,17.00
2019,03,21,17,41,16.90
2019,03,21,17,42,16.80
2019,03,21,17,43,16.80